This demonstration page uses our WeatherBlox Daily Observations layout. Learn more.

Left ArrowRight Arrow

39.08367, -84.50855

Hourly Observations for December 6, 2020

Temp ( °F °C ) Dew Point ( °F °C ) Humidity (%) Winds ( mph kmh ) Pressure ( in mb ) Visibility ( mi km ) Precip ( " mm )
12:53 am 00:53 Clear 26 -3.3 24 -4.4 92 92 N N/A 30.13 1020 8 13 N/A
1:53 am 01:53 Clear with Mist and Fog 27 -2.8 24 -4.4 89 89 N N/A 30.11 1020 6 10 N/A
2:53 am 02:53 Clear with Mist and Fog 25 -3.9 23 -5 92 92 ENE 3 6 30.10 1019 4 6 N/A
3:53 am 03:53 Clear with Mist and Fog 24 -4.4 22 -5.6 91 91 N N/A 30.09 1019 4 6 N/A
3:55 am 03:55 Clear with Mist and Fog 24 -4.4 22 -5.6 91 91 N N/A 30.12 1020 2 3 N/A
4:07 am 04:07 Clear with Mist and Fog 24 -4.4 22 -5.6 91 91 N N/A 30.12 1020 3 5 N/A
4:53 am 04:53 Clear with Mist and Fog 23 -5 21 -6.1 92 92 NE 3 6 30.09 1019 5 8 N/A
5:53 am 05:53 Partly Cloudy 24 -4.4 22 -5.6 91 91 N 3 6 30.08 1019 8 13 N/A
6:53 am 06:53 Clear with Mist and Fog 24 -4.4 22 -5.6 91 91 N N/A 30.09 1019 6 10 N/A
7:53 am 07:53 Cloudy with Mist and Fog 23 -5 21 -6.1 92 92 N N/A 30.08 1019 6 10 N/A
8:53 am 08:53 Cloudy 28 -2.2 26 -3.3 92 92 N N/A 30.09 1019 7 11 N/A
9:53 am 09:53 Cloudy 30 -1.1 28 -2.2 92 92 ENE 3 6 30.09 1019 9 14 N/A
10:53 am 10:53 Cloudy 33 0.6 29 -1.7 85 85 ENE 3 6 30.08 1019 9 14 N/A
11:53 am 11:53 Cloudy 36 2.2 30 -1.1 79 79 NE 5 7 30.06 1018 10 16 N/A
12:53 pm 12:53 Mostly Cloudy 39 3.9 31 -0.6 73 73 NE 6 9 30.02 1017 10 16 N/A
1:53 pm 13:53 Cloudy 40 4.4 31 -0.6 70 70 NNE 6 9 30.01 1016 10 16 N/A
2:53 pm 14:53 Cloudy 41 5 30 -1.1 65 65 ENE 5 7 29.99 1016 10 16 N/A
3:53 pm 15:53 Cloudy 41 5 30 -1.1 65 65 NE 6 9 29.99 1016 10 16 N/A
4:10 pm 16:10 Cloudy 40 4.4 31 -0.6 70 70 NE 6 9 30.00 1016 10 16 N/A
4:53 pm 16:53 Cloudy 40 4.4 31 -0.6 70 70 NE 6 9 30.00 1016 10 16 N/A
5:27 pm 17:27 Cloudy 40 4.4 30 -1.1 68 68 ENE 6 9 30.01 1016 10 16 N/A
5:53 pm 17:53 Cloudy 39 3.9 31 -0.6 73 73 NE 5 7 30.01 1016 10 16 N/A
6:53 pm 18:53 Cloudy 39 3.9 30 -1.1 70 70 NNE 9 15 30.02 1017 10 16 N/A
7:53 pm 19:53 Cloudy 38 3.3 29 -1.7 70 70 NE 7 11 30.02 1017 10 16 N/A
8:53 pm 20:53 Cloudy 37 2.8 28 -2.2 70 70 NE 9 15 29.99 1016 10 16 N/A
9:53 pm 21:53 Cloudy 35 1.7 27 -2.8 72 72 VRB 6 9 29.96 1015 10 16 N/A
10:53 pm 22:53 Cloudy 35 1.7 27 -2.8 72 72 NNE 7 11 29.95 1014 10 16 N/A
11:53 pm 23:53 Cloudy 36 2.2 26 -3.3 67 67 NNE 6 9 29.99 1016 10 16 N/A

Powered by AerisWeather